User: anonymous   Login
Location: Unspecified
(0.0000°N, 0.0000°E)
Time: 06:49:08
(UTC+00:00)
Language:

STARLINK-5222 - Orbit

View from above orbital plane
View from above orbital plane
View from above satellite
View from above satellite

Ground track
Ground track

The orbit is defined by the following mean orbital elements,

1 54068U          26145.30980582 +.00000000 +00000-0 +56717-4 0 00009
2 54068  53.2137 359.9704 0001059 118.0045 242.1055 15.08839743    04
Epoch (UTC): 25 May 2026 07:26:07
Eccentricity: 0.0001059
inclination: 53.2137°
perigee height: 539 km
apogee height: 540 km
right ascension of ascending node: 359.9704°
argument of perigee: 118.0045°
revolutions per day: 15.08839743
mean anomaly at epoch: 242.1055°

The dashed part of the orbit path shows where the satellite is in the earth's shadow,  

DLR